Regional Weather Roundup
Issued by NWS Cleveland, OH

Home | Current Version | Previous Version | Text Only | Print | Product List | Glossary Off
Versions: 1 2 3 4 5 6 7 8 9 10 11 12 13 14 15 16 17 18 19 20 21 22 23 24 25 26 27 28 29 30 31 32 33 34 35 36 37 38 39 40 41 42 43 44 45 46 47 48 49 50

000
ASUS41 KCLE 200802
RWRCLE
OHIO REGIONAL WEATHER ROUNDUP
NATIONAL WEATHER SERVICE CLEVELAND, OH
300 AM EST SAT DEC 20 2014

NOTE: "FAIR" INDICATES FEW OR NO CLOUDS BELOW 12,000 FEET WITH NO
SIGNIFICANT WEATHER AND/OR OBSTRUCTIONS TO VISIBILITY.

OHZ001>008-015>018-024>027-034-035-043-044-200900-
   NORTHWEST OHIO

CITY           SKY/WX    TMP DP  RH WIND       PRES   REMARKS
DEFIANCE       CLOUDY    29  23  78 CALM      30.29R
FINDLAY        CLOUDY    30  21  69 SE3       30.27R
TOLEDO EXPRESS CLOUDY    29  21  72 CALM      30.28R
TOLEDO EXEC    CLOUDY    30  23  75 CALM      30.29R
LIMA           CLOUDY    30  23  75 S5        30.27R WCI  25
$$

OHZ009>014-019>023-028>033-038-089-200900-
   NORTHEAST OHIO

CITY           SKY/WX    TMP DP  RH WIND       PRES   REMARKS
CLE-HOPKINS    CLOUDY    29  20  69 S5        30.30R WCI  24
CLE-LAKEFRONT  CLOUDY    31  21  66 W6        30.28R WCI  25
CUY CO. ARPT   NOT AVBL
LORAIN-ELYRIA  CLOUDY    28  22  78 S5        30.29R WCI  23
ASHTABULA      CLOUDY    29  21  72 SW5       30.26R WCI  24
AKRON-CANTON   CLOUDY    28  21  75 CALM      30.25R
WOOSTER        CLOUDY    28  20  71 CALM      30.26R
MANSFIELD      CLOUDY    28  21  75 NE3       30.23F
YOUNGSTOWN     CLOUDY    27  19  72 W3        30.25R
$$

OHZ042-051>053-060>062-070>072-077>081-200900-
  SOUTHWEST OHIO

CITY           SKY/WX    TMP DP  RH WIND       PRES   REMARKS
CINC-COVINGTON CLOUDY    30  21  69 SE3       30.26R
CINC-LUNKEN    CLOUDY    31  23  72 CALM      30.30R
HAMILTON       CLOUDY    31  25  78 E3        30.29R
DAYTON         CLOUDY    30  23  75 CALM      30.28R
WRIGHT-PAT AFB CLOUDY    29  22  74 CALM      30.28R
DAYTON GENERAL CLOUDY    29  23  78 CALM      30.26S
WILMINGTON     CLOUDY    28  22  78 E3        30.26R
$$

OHZ036-037-039>041-045>050-054>059-063>069-073>076-082>088-200900-
  CENTRAL AND SOUTHEAST OHIO

CITY           SKY/WX    TMP DP  RH WIND       PRES   REMARKS
COLUMBUS       CLOUDY    29  22  75 S3        30.29R
OSU AIRPORT    CLOUDY    29  22  75 SE3       30.28R
BOLTON FIELD   NOT AVBL
RICKENBACK AFB NOT AVBL
NEWARK         CLOUDY    30  23  75 CALM      30.27R
MARION         CLOUDY    28  22  78 S3        30.27R
LANCASTER      CLOUDY    45  23  42 S5        30.28R
ZANESVILLE     CLOUDY    29  22  75 E5        30.26R WCI  24
NEW PHILLY     CLOUDY    30  20  66 CALM      30.26S
$$


USA.gov is the U.S. government's official web portal to all federal, state and local government web resources and services.